"Pseudo-MPEC" for C0GWC65

Created 2023 Mar 24 0:22:04 UT using Find_Orb

Click here for an explanation of pseudo-MPECs

 
 Astrometry: 
     C0GWC65* C2023 03 18jki)/LJc7\LF(Sbvs8.Z6aUw/r66Q2WuX$gM(+?1d!dw7r,L/G',V00
     C0GWC65  C2023 03 180SBG*/XYgX8._tm$9$BoC#l4uR`*SBjdugeZPC9=UQ%oMss+ohNrV00
     C0GWC65  C2023 03 185=AstrometrynA#RuEw_uJUnmHejqZqDS#nB+fWH4RLAMK2F6\U*V00
     C0GWC65  C2023 03 18)$o`X9181Vkredacted;4J3?jDhYwnJsr7@.MO8WSaq1(Ie8oy(sV00
     C0GWC65 mC2023 03 18-';fXc@\\8sVG,8X9S)KS1N?JCrfEMa:m?#3U:%)J%*click0qbJV00
     C0GWC65 mC2023 03 18Jku$V#wGIG'INhcBaA/55E_:)p2k@66o:Grk'so(ThereWB'S]bTV00
     C0GWC65 mC2023 03 187QSwl]GX(gns6c@..G\#forPju-gW:JY$KT2Hoo2w6pLC64R8J/hV00
     C0GWC65 mC2023 03 18;+O(bi,ukeFywnSl=eC-l:3i*HuBL+dgj9IR(V'texplanationAV00

Station data:
(V00) Kitt Peak-Bok  (N31.963125 W111.600190)  US/Arizona.  Observers T. A.
   Pruyne, B. M. Africano, E. J. Christensen, G. A. Farneth, D. C. Fuls, A.
   R. Gibbs, A. D. Grauer, H. Gröller, J. A. Johnson, R. A. Kowalski, S. M.
   Larson, G. J. Leonard, D. Rankin, R. L. Seaman, F. C. Shelly, K. W.
   Wierzchoś. 2.25-m reflector + CCD.

Orbital elements:  C0GWC65
   Perihelion 2023 Aug 1.65173 +/- 93.2 TT = 15:38:29 (JD 2460158.15173)
Epoch 2023 Mar 18.0 TT = JDT 2460021.5   Earth MOID: 0.0037   Ve: 0.0937
M 210.35920878 +/- 90               (J2000 ecliptic)             AutoNEOCP
n   1.09505227 +/- 0.244            Peri.  318.27728 +/- 28
a   0.93220797 +/- 0.139            Node    14.49223 +/- 60
e   0.1205620 +/- 0.137             Incl.    2.64435 +/- 3.8
P   0.90/328.75d           H 28.94  G  0.15   U 11.8  SR
q 0.81981908 +/- 0.107    Q 1.04459687 +/- 0.413
From 8 observations 2023 Mar. 18 (1.9 hr); mean residual 0".23
Residuals in arcseconds: 
230318 V00  .08-  .20-    230318 V00  .20-  .20+    230318 V00  .07+  .13+    
230318 V00  .38+  .02-    230318 V00  .10+  .03+    230318 V00  .29-  .53-    
230318 V00  .14-  .05+    230318 V00  .16+  .34+    

Ephemerides (geocentric):
Date (UTC) HH   RA             Dec           delta  r     elong  mag " sig PA
---- --------  ------------   ------------  ------ ------ -----  --- --------
2023 03 24 00  11 44 34.726   +21 27 17.91  .03211 1.0263 156.6 22.7  44d 167
2023 03 24 01  11 44 05.412   +21 28 18.28  .03206 1.0262 156.5 22.7  44d 167
2023 03 24 02  11 43 36.014   +21 29 18.38  .03202 1.0262 156.4 22.7  44d 167
2023 03 24 03  11 43 06.533   +21 30 18.20  .03198 1.0262 156.4 22.7  45d 167
2023 03 24 04  11 42 36.968   +21 31 17.74  .03193 1.0261 156.3 22.7  45d 167
2023 03 24 05  11 42 07.320   +21 32 17.00  .03189 1.0261 156.2 22.7  45d 167
2023 03 24 06  11 41 37.589   +21 33 15.97  .03185 1.0260 156.1 22.7  45d 167
2023 03 24 07  11 41 07.774   +21 34 14.66  .03181 1.0260 156.1 22.7  45d 167
2023 03 24 08  11 40 37.876   +21 35 13.05  .03176 1.0259 156.0 22.7  46d 167
2023 03 24 09  11 40 07.895   +21 36 11.15  .03172 1.0259 155.9 22.7  46d 167
2023 03 24 10  11 39 37.831   +21 37 08.95  .03168 1.0258 155.8 22.7  46d 167
2023 03 24 11  11 39 07.683   +21 38 06.45  .03164 1.0258 155.7 22.7  46d 167
2023 03 24 12  11 38 37.453   +21 39 03.64  .03160 1.0258 155.6 22.7  46d 167
2023 03 24 13  11 38 07.139   +21 40 00.52  .03155 1.0257 155.6 22.7  46d 167
2023 03 24 14  11 37 36.743   +21 40 57.10  .03151 1.0257 155.5 22.7  46d 167
2023 03 24 15  11 37 06.263   +21 41 53.35  .03147 1.0256 155.4 22.7  47d 167
2023 03 24 16  11 36 35.701   +21 42 49.29  .03143 1.0256 155.3 22.6  47d 167
2023 03 24 17  11 36 05.056   +21 43 44.91  .03139 1.0255 155.2 22.6  47d 167
2023 03 24 18  11 35 34.328   +21 44 40.20  .03135 1.0255 155.1 22.6  47d 167
2023 03 24 19  11 35 03.518   +21 45 35.17  .03131 1.0254 155.0 22.6  47d 167
2023 03 24 20  11 34 32.625   +21 46 29.80  .03127 1.0254 154.9 22.6  47d 167
2023 03 24 21  11 34 01.650   +21 47 24.10  .03123 1.0253 154.9 22.6  47d 166
2023 03 24 22  11 33 30.592   +21 48 18.05  .03118 1.0253 154.8 22.6  47d 166
2023 03 24 23  11 32 59.452   +21 49 11.67  .03114 1.0253 154.7 22.6  48d 166
2023 03 25 00  11 32 28.230   +21 50 04.94  .03110 1.0252 154.6 22.6  48d 166
2023 03 25 01  11 31 56.926   +21 50 57.86  .03106 1.0252 154.5 22.6  48d 166
2023 03 25 02  11 31 25.539   +21 51 50.43  .03103 1.0251 154.4 22.6  48d 166
2023 03 25 03  11 30 54.071   +21 52 42.65  .03099 1.0251 154.3 22.6  48d 166
2023 03 25 04  11 30 22.521   +21 53 34.50  .03095 1.0250 154.2 22.6  48d 166
2023 03 25 05  11 29 50.889   +21 54 25.99  .03091 1.0250 154.1 22.6  48d 166
2023 03 25 06  11 29 19.176   +21 55 17.12  .03087 1.0249 154.0 22.6  48d 166
2023 03 25 07  11 28 47.381   +21 56 07.88  .03083 1.0249 153.9 22.6  48d 166
2023 03 25 08  11 28 15.505   +21 56 58.26  .03079 1.0248 153.8 22.6  48d 166
2023 03 25 09  11 27 43.548   +21 57 48.27  .03075 1.0248 153.7 22.6  48d 166
2023 03 25 10  11 27 11.510   +21 58 37.89  .03071 1.0247 153.6 22.6  48d 166
2023 03 25 11  11 26 39.390   +21 59 27.14  .03068 1.0247 153.5 22.6  48d 166
2023 03 25 12  11 26 07.190   +22 00 16.00  .03064 1.0247 153.4 22.6  49d 166
2023 03 25 13  11 25 34.910   +22 01 04.46  .03060 1.0246 153.3 22.6  49d 166
2023 03 25 14  11 25 02.549   +22 01 52.54  .03056 1.0246 153.2 22.6  49d 166
2023 03 25 15  11 24 30.107   +22 02 40.21  .03052 1.0245 153.1 22.6  49d 166
2023 03 25 16  11 23 57.585   +22 03 27.49  .03049 1.0245 153.0 22.6  49d 166
2023 03 25 17  11 23 24.984   +22 04 14.36  .03045 1.0244 152.9 22.7  49d 166
2023 03 25 18  11 22 52.302   +22 05 00.83  .03041 1.0244 152.8 22.7  49d 166
2023 03 25 19  11 22 19.541   +22 05 46.88  .03038 1.0243 152.7 22.7  49d 166
2023 03 25 20  11 21 46.700   +22 06 32.52  .03034 1.0243 152.6 22.7  49d 166
2023 03 25 21  11 21 13.779   +22 07 17.74  .03030 1.0242 152.4 22.7  49d 166
2023 03 25 22  11 20 40.780   +22 08 02.54  .03027 1.0242 152.3 22.7  49d 166
2023 03 25 23  11 20 07.702   +22 08 46.91  .03023 1.0241 152.2 22.7  49d 166